User: anonymous   Login
Location: Ford County Road and Bridge Department
(37.7686°N, 99.9762°W)
Time: 10:58:02
(UTC+00:00)
Language:

COSMOS 2428 - Orbit

View from above orbital plane
View from above orbital plane
View from above satellite
View from above satellite

Ground track
Ground track

The orbit data is extracted from the following two-line orbital elements,

1 31792U 07029A   20095.20016287 -.00000244  00000-0 -10623-3 0  9999
2 31792  70.9204  68.8820 0007119 191.9925 168.1027 14.12369789658387
Epoch (UTC): 04 April 2020 04:48:14
Eccentricity: 0.0007119
inclination: 70.9204°
perigee height: 846 km
apogee height: 856 km
right ascension of ascending node: 68.8820°
argument of perigee: 191.9925°
revolutions per day: 14.12369789
mean anomaly at epoch: 168.1027°
orbit number at epoch: 65838

The dashed part of the orbit path shows where the satellite is in the earth's shadow,  

DLR